Date String (YYYY-MM-DD hh:mm:ss) UTC,Instrument flags,Ambient pressure (hPa),Sample flow (lpm),Bypass flow (lpm),Sample temperature (°C),Ambient temperature (°C),ASC tube jacket temperature (°C),LED temperature (°C),Box temperature (°C),Sample RH (%),Span deviation,Mass concentration (μg/m³),Mass concentration (μg/m³),Mass concentration (μg/m³)
DateTimeUTC,F1_M11,P_M11,Q1_M11,Q2_M11,T1_M11,T2_M11,T3_M11,T4_M11,T5_M11,U1_M11,ZSPAN_M11,X0_M11,X2_M11,X1_M11
2023-02-05 02:00:00,,0823.9,5.01,0.00,22.2,20.6,00.0,31.2,23.8,09.0,0000.0,0004.20,0001.04,0000.48
2023-02-05 02:01:00,,0823.8,4.97,0.00,22.2,20.6,00.0,31.1,23.8,09.2,0000.0,0004.12,0001.02,0000.48
2023-02-05 02:02:00,,0823.6,5.02,0.00,22.2,20.4,00.0,31.1,23.8,09.1,0000.0,0004.55,0000.99,0000.47
2023-02-05 02:03:00,,0823.7,4.98,0.00,22.1,20.3,00.0,31.1,23.7,09.0,0000.0,0005.00,0000.98,0000.47
2023-02-05 02:04:00,,0823.9,5.04,0.00,22.1,20.2,00.0,31.1,23.7,08.9,0000.0,0004.85,0000.97,0000.48
2023-02-05 02:05:00,,0823.8,4.96,0.00,22.0,20.2,00.0,31.1,23.6,09.0,0000.0,0004.74,0000.95,0000.47
2023-02-05 02:06:00,,0824.0,5.04,0.00,22.0,20.2,00.0,31.1,23.6,09.0,0000.0,0003.26,0000.93,0000.47
2023-02-05 02:07:00,,0824.0,4.97,0.00,22.0,20.9,00.0,31.0,23.8,09.3,0000.0,0004.01,0000.96,0000.47
2023-02-05 02:08:00,,0824.1,5.02,0.00,22.2,22.1,00.0,31.0,24.2,08.8,0000.0,0004.00,0000.95,0000.47
2023-02-05 02:09:00,,0824.2,4.98,0.00,22.3,23.0,00.0,31.0,24.5,08.9,0000.0,0003.95,0000.93,0000.46
2023-02-05 02:10:00,,0824.2,5.02,0.00,22.4,22.7,00.0,31.1,24.5,08.9,0000.0,0003.88,0000.89,0000.45
2023-02-05 02:11:00,,0824.2,4.98,0.00,22.4,22.2,00.0,31.1,24.4,09.0,0000.0,0004.16,0000.94,0000.45
2023-02-05 02:12:00,,0824.4,5.02,0.00,22.4,21.8,00.0,31.2,24.3,08.8,0000.0,0004.30,0000.99,0000.46
2023-02-05 02:13:00,,0824.6,5.00,0.00,22.4,21.6,00.0,31.2,24.2,09.1,0000.0,0003.93,0000.98,0000.46
2023-02-05 02:14:00,,0824.4,4.97,0.00,22.4,21.4,00.0,31.2,24.2,09.0,0000.0,0003.51,0001.01,0000.46
2023-02-05 02:15:00,,0824.4,5.04,0.00,22.4,21.2,00.0,31.2,24.1,09.0,0000.0,0003.45,0000.99,0000.46
2023-02-05 02:16:00,,0824.7,4.97,0.00,22.4,21.0,00.0,31.2,24.1,09.0,0000.0,0003.40,0000.98,0000.46
2023-02-05 02:17:00,,0824.6,5.04,0.00,22.4,21.0,00.0,31.2,24.0,09.0,0000.0,0003.27,0001.00,0000.46
2023-02-05 02:18:00,,0824.6,4.96,0.00,22.3,20.9,00.0,31.2,24.0,09.0,0000.0,0002.33,0000.96,0000.45
2023-02-05 02:19:00,,0824.6,5.03,0.00,22.3,20.8,00.0,31.2,24.0,09.0,0000.0,0002.21,0000.92,0000.45
2023-02-05 02:20:00,,0824.5,4.98,0.00,22.3,20.7,00.0,31.2,23.9,09.0,0000.0,0002.11,0000.89,0000.46
2023-02-05 02:21:00,,0824.7,5.02,0.00,22.3,20.7,00.0,31.2,23.9,08.9,0000.0,0002.11,0000.90,0000.47
2023-02-05 02:22:00,,0824.5,4.98,0.00,22.3,20.7,00.0,31.2,23.9,09.0,0000.0,0002.25,0000.88,0000.47
2023-02-05 02:23:00,,0824.4,5.01,0.00,22.2,20.7,00.0,31.2,23.9,09.0,0000.0,0002.08,0000.83,0000.46
2023-02-05 02:24:00,,0824.4,5.00,0.00,22.2,20.7,00.0,31.2,23.9,09.0,0000.0,0002.14,0000.84,0000.46
2023-02-05 02:25:00,,0824.5,4.98,0.00,22.2,20.7,00.0,31.2,23.9,09.0,0000.0,0001.97,0000.83,0000.46
2023-02-05 02:26:00,,0824.6,5.04,0.00,22.2,20.6,00.0,31.2,23.9,09.3,0000.0,0001.97,0000.85,0000.46
2023-02-05 02:27:00,,0824.6,4.97,0.00,22.2,20.6,00.0,31.1,23.8,09.1,0000.0,0001.97,0000.85,0000.47
2023-02-05 02:28:00,,0824.6,5.04,0.00,22.2,20.6,00.0,31.1,23.8,09.3,0000.0,0002.08,0000.89,0000.47
2023-02-05 02:29:00,,0824.5,4.97,0.00,22.2,20.6,00.0,31.1,23.8,09.2,0000.0,0003.08,0000.89,0000.47
2023-02-05 02:30:00,,0824.7,5.05,0.00,22.1,20.6,00.0,31.1,23.8,09.0,0000.0,0003.20,0000.89,0000.47
2023-02-05 02:31:00,,0824.5,4.97,0.00,22.1,20.5,00.0,31.1,23.7,09.0,0000.0,0003.17,0000.87,0000.46
2023-02-05 02:32:00,,0824.6,5.02,0.00,22.1,20.5,00.0,31.1,23.7,09.0,0000.0,0003.15,0000.88,0000.47
2023-02-05 02:33:00,,0824.6,4.99,0.00,22.1,20.5,00.0,31.1,23.7,09.2,0000.0,0002.88,0000.88,0000.47
2023-02-05 02:34:00,,0824.7,5.00,0.00,22.1,20.5,00.0,31.1,23.7,09.1,0000.0,0002.91,0000.89,0000.46
2023-02-05 02:35:00,,0824.7,5.02,0.00,22.0,20.4,00.0,31.0,23.7,09.2,0000.0,0002.82,0000.86,0000.46
2023-02-05 02:36:00,,0824.7,4.97,0.00,22.0,20.5,00.0,31.0,23.7,09.1,0000.0,0002.82,0000.86,0000.46
2023-02-05 02:37:00,,0824.6,5.05,0.00,22.0,20.4,00.0,31.0,23.7,09.1,0000.0,0002.89,0000.84,0000.45
2023-02-05 02:38:00,,0824.8,4.96,0.00,22.0,20.4,00.0,31.0,23.6,09.0,0000.0,0003.99,0000.81,0000.44
2023-02-05 02:39:00,,0824.8,5.05,0.00,22.0,20.4,00.0,31.0,23.6,08.9,0000.0,0004.50,0000.78,0000.43
2023-02-05 02:40:00,,0824.7,4.96,0.00,22.0,20.4,00.0,31.0,23.7,08.8,0000.0,0004.44,0000.82,0000.43
2023-02-05 02:41:00,,0824.8,5.02,0.00,22.0,20.3,00.0,31.0,23.7,08.7,0000.0,0004.14,0000.82,0000.43
2023-02-05 02:42:00,,0824.8,4.98,0.00,21.9,20.3,00.0,30.9,23.6,08.8,0000.0,0004.17,0000.84,0000.43
2023-02-05 02:43:00,,0824.7,5.00,0.00,21.9,20.3,00.0,30.9,23.6,08.7,0000.0,0004.27,0000.83,0000.41
2023-02-05 02:44:00,,0824.6,5.00,0.00,21.9,20.3,00.0,30.9,23.6,08.9,0000.0,0004.25,0000.81,0000.40
2023-02-05 02:45:00,,0824.7,5.00,0.00,21.9,20.3,00.0,30.9,23.5,08.9,0000.0,0004.40,0000.82,0000.40
2023-02-05 02:46:00,,0824.5,5.01,0.00,21.9,20.5,00.0,30.8,23.6,08.8,0000.0,0004.37,0000.81,0000.40
2023-02-05 02:47:00,,0824.4,4.99,0.00,22.0,21.6,00.0,30.8,23.9,08.7,0000.0,0004.94,0000.82,0000.38
2023-02-05 02:48:00,,0824.4,5.00,0.00,22.1,22.6,00.0,30.8,24.2,08.7,0000.0,0005.33,0000.81,0000.38
2023-02-05 02:49:00,,0824.4,5.04,0.00,22.2,22.6,00.0,30.9,24.2,08.3,0000.0,0004.31,0000.81,0000.38
2023-02-05 02:50:00,,0824.7,4.98,0.00,22.2,21.9,00.0,30.9,24.1,08.2,0000.0,0003.68,0000.82,0000.38
2023-02-05 02:51:00,,0824.8,4.97,0.00,22.1,21.2,00.0,30.9,23.9,08.2,0000.0,0003.11,0000.81,0000.39
2023-02-05 02:52:00,,0824.9,5.04,0.00,22.1,20.8,00.0,31.0,23.8,08.3,0000.0,0003.18,0000.82,0000.38
2023-02-05 02:53:00,,0824.9,4.96,0.00,22.0,20.6,00.0,31.0,23.7,08.2,0000.0,0003.24,0000.84,0000.39
2023-02-05 02:54:00,,0824.9,5.03,0.00,22.0,20.4,00.0,31.0,23.7,08.2,0000.0,0003.06,0000.81,0000.40
2023-02-05 02:55:00,,0824.9,4.96,0.00,22.0,20.2,00.0,30.9,23.6,08.3,0000.0,0003.10,0000.84,0000.41
2023-02-05 02:56:00,,0824.9,5.04,0.00,21.9,20.1,00.0,30.9,23.6,08.3,0000.0,0003.18,0000.81,0000.41
2023-02-05 02:57:00,,0825.0,4.95,0.00,21.9,20.0,00.0,30.9,23.5,08.3,0000.0,0003.32,0000.83,0000.41
2023-02-05 02:58:00,,0824.9,5.04,0.00,21.8,19.9,00.0,30.9,23.5,08.4,0000.0,0002.91,0000.80,0000.42
2023-02-05 02:59:00,,0825.0,4.96,0.00,21.8,19.8,00.0,30.9,23.4,08.3,0000.0,0002.12,0000.82,0000.42
